Location: Krakow
(50.0830°N, 19.9170°E)
Time: 07:20:43
(UTC+02:00)

Tiros 1 despin weight - Pass Details

Date: 16 March 2026
Orbit: 555 x 592 km, 48.2° (Epoch: 18 April)

Event Time Altitude Azimuth Distance (km) Brightness Sun altitude
Rises 09:09:23 0° 279° (W) 2,799 ? 28.0°
Reaches altitude 10° 09:11:46 10° 272° (W) 1,892 ? 28.3°
Maximum altitude 09:15:49 39° 203° (SSW) 863 ? 28.7°
Drops below altitude 10° 09:19:47 10° 134° (SE) 1,863 ? 29.2°
Sets 09:22:07 0° 127° (SE) 2,751 ? 29.4°
